Mosinee, WI

6:28 PM CDT on March 25, 2017 (GMT -0500)
Central Wisconsin

Weather History for KCWA - March, 2014

Change the Weather History Date:

Tuesday, March 18, 2014

  Actual Average Record
Temperature  
Mean Temperature 28 °F -  
Max Temperature 35 °F 36 °F 78 °F (2012)
Min Temperature 21 °F 19 °F 12 °F (2006)
Degree Days  
Heating Degree Days 37    
Moisture  
Dew Point 25 °F    
Average Humidity 89    
Maximum Humidity 100    
Minimum Humidity 75    
Precipitation  
Precipitation 0.00 in - - ()
Sea Level Pressure  
Sea Level Pressure 29.78 in    
Wind  
Wind Speed 9 mph (East)    
Max Wind Speed 15 mph    
Max Gust Speed 21 mph    
Visibility 9 miles    
Events Snow    
Averages and records for this station are not official NWS values.
T = Trace of Precipitation, MM = Missing Value Source: NWS Daily Summary

Daily Weather History Graph

Daily Weather History Graph

Search for Another Location

Airport or City:

Trip Planner

Search our weather history database for the weather conditions in past years. The results will help you decide how hot, cold, wet, or windy it might be!

Date:

Astronomy

Mar. 18, 2014 Rise Set
Actual Time 7:05 AM CDT 7:08 PM CDT
Civil Twilight 6:36 AM CDT 7:37 PM CDT
Nautical Twilight 6:02 AM CDT 8:12 PM CDT
Astronomical Twilight 5:27 AM CDT 8:46 PM CDT
Moon 9:32 PM CDT (3/18) 7:49 AM CDT (3/18)
Length of Visible Light 13h 01m
Length of Day
12h 03m
Waning Gibbous, 96% of the Moon is Illuminated
Mar 18
Waning Gibbous
Mar 23
Last Quarter
Mar 30
New
Apr 7
First Quarter
Apr 15
Full

Hourly Weather History & Observations

Time (CDT) Temp. Windchill Dew Point Humidity Pressure Visibility Wind Dir Wind Speed Gust Speed Precip Events Conditions
12:15 AM 23.0 °F 13.9 °F 19.4 °F 86% 29.77 in 10.0 mi East 8.1 mph - N/A   Scattered Clouds
12:35 AM 23.0 °F 14.7 °F 19.4 °F 86% 29.77 in 10.0 mi East 6.9 mph - N/A   Clear
12:55 AM 23.0 °F 13.1 °F 19.4 °F 86% 29.77 in 10.0 mi ESE 9.2 mph - N/A   Clear
1:15 AM 23.0 °F 13.1 °F 19.4 °F 86% 29.77 in 10.0 mi ESE 9.2 mph - N/A   Clear
1:35 AM 23.0 °F 13.1 °F 19.4 °F 86% 29.77 in 10.0 mi ESE 9.2 mph - N/A   Clear
1:55 AM 23.0 °F 14.7 °F 19.4 °F 86% 29.77 in 10.0 mi ESE 6.9 mph - N/A   Clear
2:15 AM 23.0 °F 13.9 °F 21.2 °F 93% 29.77 in 10.0 mi ESE 8.1 mph - N/A   Clear
2:35 AM 23.0 °F 13.9 °F 21.2 °F 93% 29.77 in 10.0 mi ESE 8.1 mph - N/A   Clear
2:55 AM 24.8 °F 16.1 °F 21.2 °F 86% 29.77 in 10.0 mi ESE 8.1 mph - N/A   Clear
3:15 AM 24.8 °F 16.1 °F 21.2 °F 86% 29.77 in 10.0 mi ESE 8.1 mph - N/A   Clear
3:35 AM 24.8 °F 16.1 °F 21.2 °F 86% 29.77 in 10.0 mi ESE 8.1 mph - N/A   Clear
3:55 AM 24.8 °F 16.1 °F 21.2 °F 86% 29.76 in 10.0 mi ESE 8.1 mph - N/A   Clear
4:15 AM 24.8 °F 16.9 °F 21.2 °F 86% 29.76 in 10.0 mi ESE 6.9 mph - N/A   Clear
4:35 AM 23.0 °F 13.9 °F 21.2 °F 93% 29.76 in 10.0 mi East 8.1 mph - N/A   Clear
4:55 AM 23.0 °F 14.7 °F 21.2 °F 93% 29.76 in 10.0 mi East 6.9 mph - N/A   Clear
5:15 AM 23.0 °F 13.1 °F 21.2 °F 93% 29.76 in 10.0 mi East 9.2 mph - N/A   Clear
5:35 AM 23.0 °F 14.7 °F 21.2 °F 93% 29.76 in 10.0 mi East 6.9 mph - N/A   Clear
5:50 AM 21.2 °F 11.7 °F 21.2 °F 100% 29.76 in 10.0 mi East 8.1 mph - N/A   Clear
6:50 AM 21.2 °F 10.9 °F 19.4 °F 93% 29.76 in 5.0 mi East 9.2 mph - N/A   Clear
7:45 AM 21.2 °F 10.9 °F 21.2 °F 100% 29.77 in 5.0 mi East 9.2 mph - N/A   Clear
8:50 AM 24.8 °F 16.1 °F 24.8 °F 100% 29.79 in 5.0 mi East 8.1 mph - N/A   Clear
9:50 AM 28.4 °F 21.2 °F 24.8 °F 86% 29.80 in 7.0 mi East 6.9 mph - N/A   Clear
10:50 AM 32.0 °F 23.6 °F 24.8 °F 75% 29.81 in 10.0 mi East 10.4 mph - N/A   Clear
11:50 AM 32.0 °F 24.2 °F 26.6 °F 80% 29.82 in 10.0 mi East 9.2 mph - N/A   Clear
12:50 PM 33.8 °F 24.3 °F 26.6 °F 75% 29.81 in 10.0 mi East 13.8 mph - N/A   Clear
1:45 PM 33.8 °F 25.3 °F 28.4 °F 81% 29.81 in 10.0 mi East 11.5 mph - N/A   Mostly Cloudy
2:50 PM 33.8 °F 24.8 °F 28.4 °F 81% 29.78 in 10.0 mi East 12.7 mph - N/A   Mostly Cloudy
3:52 PM 35.6 °F 26.6 °F 30.2 °F 81% 29.78 in 10.0 mi East 13.8 mph 20.7 mph N/A   Mostly Cloudy
5:45 PM 33.8 °F 23.9 °F 30.2 °F 87% 29.75 in 10.0 mi East 15.0 mph - N/A   Mostly Cloudy
5:50 PM 35.6 °F 27.1 °F 30.2 °F 81% 29.77 in 10.0 mi East 12.7 mph 18.4 mph N/A   Mostly Cloudy
6:50 PM 33.8 °F 28.6 °F 30.2 °F 87% 29.78 in 10.0 mi ESE 5.8 mph - N/A   Mostly Cloudy
7:05 PM 33.8 °F 28.6 °F 30.2 °F 87% 29.80 in 1.0 mi ESE 5.8 mph - N/A   Mostly Cloudy
7:45 PM 32.0 °F 25.6 °F 32.0 °F 100% 29.80 in 0.8 mi ENE 6.9 mph - N/A Snow Light Snow
8:08 PM 32.0 °F 23.6 °F 32.0 °F 100% 29.82 in 3.0 mi East 10.4 mph - N/A Snow Light Snow
8:45 PM 32.0 °F 22.5 °F 30.2 °F 93% 29.80 in 7.0 mi East 12.7 mph - N/A   Clear
9:52 PM 30.2 °F 21.3 °F 30.2 °F 100% 29.81 in 7.0 mi East 10.4 mph - N/A   Clear
10:15 PM 32.0 °F 23.6 °F 30.2 °F 93% 29.80 in 10.0 mi East 10.4 mph - N/A   Clear
10:35 PM 32.0 °F 22.1 °F 30.2 °F 93% 29.80 in 10.0 mi East 13.8 mph - N/A   Scattered Clouds
10:55 PM 32.0 °F 22.1 °F 30.2 °F 93% 29.80 in 10.0 mi East 13.8 mph 19.6 mph N/A   Scattered Clouds
11:15 PM 32.0 °F 23.0 °F 30.2 °F 93% 29.79 in 10.0 mi East 11.5 mph - N/A   Scattered Clouds
11:35 PM 32.0 °F 22.5 °F 30.2 °F 93% 29.77 in 10.0 mi East 12.7 mph - N/A   Mostly Cloudy
11:55 PM 32.0 °F 22.5 °F 30.2 °F 93% 29.77 in 7.0 mi East 12.7 mph - N/A Snow Light Snow